Time,TemperatureF,DewpointF,PressureIn,WindDirection,WindDirectionDegrees,WindSpeedMPH,WindSpeedGustMPH,Humidity,HourlyPrecipIn,Conditions,Clouds,dailyrainin,SolarRadiationWatts/m^2,SoftwareType,DateUTC
2013-04-04 00:22:00,35.0,16.0,-100.00,NNE,18,7.0,13.0,46,0.00,,,0.00,0.000000,,2013-04-04 06:22:00,
2013-04-04 00:32:00,35.0,16.0,-100.00,NNE,18,7.0,13.0,46,0.00,,,0.00,0.000000,,2013-04-04 06:32:00,
2013-04-04 00:42:00,35.0,16.0,-100.00,NNE,18,7.0,13.0,46,0.00,,,0.00,0.000000,,2013-04-04 06:42:00,
2013-04-04 00:52:00,35.0,16.0,-100.00,NNE,18,7.0,13.0,46,0.00,,,0.00,0.000000,,2013-04-04 06:52:00,
2013-04-04 01:22:00,32.0,23.0,-100.00,NNE,26,6.0,19.0,69,0.00,,,0.00,0.000000,,2013-04-04 07:22:00,
2013-04-04 01:32:00,32.0,23.0,-100.00,NNE,26,6.0,19.0,69,0.00,,,0.00,0.000000,,2013-04-04 07:32:00,
2013-04-04 01:42:00,32.0,23.0,-100.00,NNE,26,6.0,19.0,69,0.00,,,0.00,0.000000,,2013-04-04 07:42:00,
2013-04-04 01:52:00,32.0,23.0,-100.00,NNE,26,6.0,19.0,69,0.00,,,0.00,0.000000,,2013-04-04 07:52:00,
2013-04-04 02:22:00,32.0,22.0,-100.00,NE,39,7.0,11.0,65,0.00,,,0.00,0.000000,,2013-04-04 08:22:00,
2013-04-04 02:32:00,32.0,22.0,-100.00,NE,39,7.0,11.0,65,0.00,,,0.00,0.000000,,2013-04-04 08:32:00,
2013-04-04 02:42:00,32.0,22.0,-100.00,NE,39,7.0,11.0,65,0.00,,,0.00,0.000000,,2013-04-04 08:42:00,
2013-04-04 02:52:00,32.0,22.0,-100.00,NE,39,7.0,11.0,65,0.00,,,0.00,0.000000,,2013-04-04 08:52:00,
2013-04-04 03:22:00,33.0,19.0,-100.00,NW,322,4.0,6.0,55,0.00,,,0.00,0.000000,,2013-04-04 09:22:00,
2013-04-04 03:33:00,33.0,19.0,-100.00,NW,322,4.0,6.0,55,0.00,,,0.00,0.000000,,2013-04-04 09:33:00,
2013-04-04 03:42:00,33.0,19.0,-100.00,NW,322,4.0,6.0,55,0.00,,,0.00,0.000000,,2013-04-04 09:42:00,
2013-04-04 03:52:00,33.0,19.0,-100.00,NW,322,4.0,6.0,55,0.00,,,0.00,0.000000,,2013-04-04 09:52:00,
2013-04-04 04:23:00,33.0,20.0,-100.00,North,358,3.0,7.0,58,0.00,,,0.00,0.000000,,2013-04-04 10:23:00,
2013-04-04 04:33:00,33.0,20.0,-100.00,North,358,3.0,7.0,58,0.00,,,0.00,0.000000,,2013-04-04 10:33:00,
2013-04-04 04:42:00,33.0,20.0,-100.00,North,358,3.0,7.0,58,0.00,,,0.00,0.000000,,2013-04-04 10:42:00,
2013-04-04 04:53:00,33.0,20.0,-100.00,North,358,3.0,7.0,58,0.00,,,0.00,0.000000,,2013-04-04 10:53:00,
2013-04-04 05:22:00,31.0,20.0,-100.00,NNW,339,2.0,6.0,63,0.00,,,0.00,0.000000,,2013-04-04 11:22:00,
2013-04-04 05:32:00,31.0,20.0,-100.00,NNW,339,2.0,6.0,63,0.00,,,0.00,0.000000,,2013-04-04 11:32:00,
2013-04-04 05:42:00,31.0,20.0,-100.00,NNW,339,2.0,6.0,63,0.00,,,0.00,0.000000,,2013-04-04 11:42:00,
2013-04-04 05:52:00,31.0,20.0,-100.00,NNW,339,2.0,6.0,63,0.00,,,0.00,0.000000,,2013-04-04 11:52:00,
2013-04-04 06:22:00,29.0,17.0,-100.00,SW,227,2.0,3.0,60,0.00,,,0.00,0.000000,,2013-04-04 12:22:00,
2013-04-04 06:32:00,29.0,17.0,-100.00,SW,227,2.0,3.0,60,0.00,,,0.00,0.000000,,2013-04-04 12:32:00,
2013-04-04 06:42:00,29.0,17.0,-100.00,SW,227,2.0,3.0,60,0.00,,,0.00,0.000000,,2013-04-04 12:42:00,
2013-04-04 06:52:00,29.0,17.0,-100.00,SW,227,2.0,3.0,60,0.00,,,0.00,0.000000,,2013-04-04 12:52:00,
2013-04-04 07:22:00,29.0,18.0,-100.00,South,178,2.0,3.0,63,0.00,,,0.00,2.000000,,2013-04-04 13:22:00,
2013-04-04 07:32:00,29.0,18.0,-100.00,South,178,2.0,3.0,63,0.00,,,0.00,2.000000,,2013-04-04 13:32:00,
2013-04-04 07:42:00,29.0,18.0,-100.00,South,178,2.0,3.0,63,0.00,,,0.00,2.000000,,2013-04-04 13:42:00,
2013-04-04 07:52:00,29.0,18.0,-100.00,South,178,2.0,3.0,63,0.00,,,0.00,2.000000,,2013-04-04 13:52:00,
2013-04-04 08:22:00,35.0,19.0,-100.00,SE,139,3.0,5.0,52,0.00,,,0.00,84.000000,,2013-04-04 14:22:00,
2013-04-04 08:32:00,35.0,19.0,-100.00,SE,139,3.0,5.0,52,0.00,,,0.00,84.000000,,2013-04-04 14:32:00,
2013-04-04 08:42:00,35.0,19.0,-100.00,SE,139,3.0,5.0,52,0.00,,,0.00,84.000000,,2013-04-04 14:42:00,
2013-04-04 08:52:00,35.0,19.0,-100.00,SE,139,3.0,5.0,52,0.00,,,0.00,84.000000,,2013-04-04 14:52:00,
2013-04-04 09:22:00,38.0,20.0,-100.00,SE,134,7.0,8.0,47,0.00,,,0.00,295.000000,,2013-04-04 15:22:00,
2013-04-04 09:33:00,38.0,20.0,-100.00,SE,134,7.0,8.0,47,0.00,,,0.00,295.000000,,2013-04-04 15:33:00,
2013-04-04 09:43:00,38.0,20.0,-100.00,SE,134,7.0,8.0,47,0.00,,,0.00,295.000000,,2013-04-04 15:43:00,
2013-04-04 09:53:00,38.0,20.0,-100.00,SE,134,7.0,8.0,47,0.00,,,0.00,295.000000,,2013-04-04 15:53:00,
2013-04-04 10:23:00,44.0,21.0,-100.00,SSE,160,4.0,8.0,40,0.00,,,0.00,526.000000,,2013-04-04 16:23:00,
2013-04-04 10:32:00,44.0,21.0,-100.00,SSE,160,4.0,8.0,40,0.00,,,0.00,526.000000,,2013-04-04 16:32:00,
2013-04-04 10:42:00,44.0,21.0,-100.00,SSE,160,4.0,8.0,40,0.00,,,0.00,526.000000,,2013-04-04 16:42:00,
2013-04-04 10:52:00,44.0,21.0,-100.00,SSE,160,4.0,8.0,40,0.00,,,0.00,526.000000,,2013-04-04 16:52:00,
2013-04-04 11:22:00,44.0,22.0,-100.00,SSW,211,8.0,14.0,41,0.00,,,0.00,701.000000,,2013-04-04 17:22:00,
2013-04-04 11:33:00,44.0,22.0,-100.00,SSW,211,8.0,14.0,41,0.00,,,0.00,701.000000,,2013-04-04 17:33:00,
2013-04-04 11:42:00,44.0,22.0,-100.00,SSW,211,8.0,14.0,41,0.00,,,0.00,701.000000,,2013-04-04 17:42:00,
2013-04-04 11:52:00,44.0,22.0,-100.00,SSW,211,8.0,14.0,41,0.00,,,0.00,701.000000,,2013-04-04 17:52:00,
2013-04-04 12:22:00,46.0,20.0,-100.00,SW,216,7.0,18.0,35,0.00,,,0.00,843.000000,,2013-04-04 18:22:00,
2013-04-04 12:32:00,46.0,20.0,-100.00,SW,216,7.0,18.0,35,0.00,,,0.00,843.000000,,2013-04-04 18:32:00,
2013-04-04 12:42:00,46.0,20.0,-100.00,SW,216,7.0,18.0,35,0.00,,,0.00,843.000000,,2013-04-04 18:42:00,
2013-04-04 12:52:00,46.0,20.0,-100.00,SW,216,7.0,18.0,35,0.00,,,0.00,843.000000,,2013-04-04 18:52:00,
2013-04-04 13:22:00,50.0,21.0,-100.00,SSE,164,5.0,22.0,31,0.00,,,0.00,930.000000,,2013-04-04 19:22:00,
2013-04-04 13:32:00,50.0,21.0,-100.00,SSE,164,5.0,22.0,31,0.00,,,0.00,930.000000,,2013-04-04 19:32:00,
2013-04-04 13:42:00,50.0,21.0,-100.00,SSE,164,5.0,22.0,31,0.00,,,0.00,930.000000,,2013-04-04 19:42:00,
2013-04-04 13:52:00,50.0,21.0,-100.00,SSE,164,5.0,22.0,31,0.00,,,0.00,930.000000,,2013-04-04 19:52:00,
2013-04-04 14:22:00,48.0,18.0,-100.00,South,189,9.0,15.0,30,0.00,,,0.00,954.000000,,2013-04-04 20:22:00,
2013-04-04 14:32:00,48.0,18.0,-100.00,South,189,9.0,15.0,30,0.00,,,0.00,954.000000,,2013-04-04 20:32:00,
2013-04-04 14:42:00,48.0,18.0,-100.00,South,189,9.0,15.0,30,0.00,,,0.00,954.000000,,2013-04-04 20:42:00,
2013-04-04 14:52:00,48.0,18.0,-100.00,South,189,9.0,15.0,30,0.00,,,0.00,954.000000,,2013-04-04 20:52:00,
2013-04-04 15:22:00,50.0,18.0,-100.00,SW,228,6.0,17.0,28,0.00,,,0.00,886.000000,,2013-04-04 21:22:00,
2013-04-04 15:32:00,50.0,18.0,-100.00,SW,228,6.0,17.0,28,0.00,,,0.00,886.000000,,2013-04-04 21:32:00,
2013-04-04 15:42:00,50.0,18.0,-100.00,SW,228,6.0,17.0,28,0.00,,,0.00,886.000000,,2013-04-04 21:42:00,
2013-04-04 15:52:00,50.0,18.0,-100.00,SW,228,6.0,17.0,28,0.00,,,0.00,886.000000,,2013-04-04 21:52:00,
2013-04-04 16:22:00,49.0,16.0,-100.00,SW,214,10.0,19.0,27,0.00,,,-99.99,797.000000,,2013-04-04 22:22:00,
2013-04-04 16:33:00,49.0,16.0,-100.00,SW,214,10.0,19.0,27,0.00,,,-99.99,797.000000,,2013-04-04 22:33:00,
2013-04-04 16:42:00,49.0,16.0,-100.00,SW,214,10.0,19.0,27,0.00,,,-99.99,797.000000,,2013-04-04 22:42:00,
2013-04-04 16:52:00,49.0,16.0,-100.00,SW,214,10.0,19.0,27,0.00,,,-99.99,797.000000,,2013-04-04 22:52:00,
2013-04-04 17:22:00,48.0,15.0,-100.00,SSW,198,8.0,19.0,26,0.00,,,0.00,572.000000,,2013-04-04 23:22:00,
2013-04-04 17:32:00,48.0,15.0,-100.00,SSW,198,8.0,19.0,26,0.00,,,0.00,572.000000,,2013-04-04 23:32:00,
2013-04-04 17:42:00,48.0,15.0,-100.00,SSW,198,8.0,19.0,26,0.00,,,0.00,572.000000,,2013-04-04 23:42:00,
2013-04-04 17:52:00,48.0,15.0,-100.00,SSW,198,8.0,19.0,26,0.00,,,0.00,572.000000,,2013-04-04 23:52:00,
2013-04-04 18:22:00,48.0,12.0,-100.00,SSW,208,12.0,20.0,23,0.00,,,0.00,363.000000,,2013-04-05 00:22:00,
2013-04-04 18:32:00,48.0,12.0,-100.00,SSW,208,12.0,20.0,23,0.00,,,0.00,363.000000,,2013-04-05 00:32:00,
2013-04-04 18:42:00,48.0,12.0,-100.00,SSW,208,12.0,20.0,23,0.00,,,0.00,363.000000,,2013-04-05 00:42:00,
2013-04-04 18:52:00,48.0,12.0,-100.00,SSW,208,12.0,20.0,23,0.00,,,0.00,363.000000,,2013-04-05 00:52:00,
2013-04-04 19:22:00,44.0,13.0,-100.00,SW,214,8.0,18.0,28,0.00,,,0.00,139.000000,,2013-04-05 01:22:00,
2013-04-04 19:32:00,44.0,13.0,-100.00,SW,214,8.0,18.0,28,0.00,,,0.00,139.000000,,2013-04-05 01:32:00,
2013-04-04 19:42:00,44.0,13.0,-100.00,SW,214,8.0,18.0,28,0.00,,,0.00,139.000000,,2013-04-05 01:42:00,
2013-04-04 19:52:00,44.0,13.0,-100.00,SW,214,8.0,18.0,28,0.00,,,0.00,139.000000,,2013-04-05 01:52:00,
2013-04-04 20:22:00,42.0,14.0,-100.00,SW,221,6.0,16.0,31,0.00,,,0.00,18.000000,,2013-04-05 02:22:00,
2013-04-04 20:32:00,42.0,14.0,-100.00,SW,221,6.0,16.0,31,0.00,,,0.00,18.000000,,2013-04-05 02:32:00,
2013-04-04 20:42:00,42.0,14.0,-100.00,SW,221,6.0,16.0,31,0.00,,,0.00,18.000000,,2013-04-05 02:42:00,
2013-04-04 20:52:00,42.0,14.0,-100.00,SW,221,6.0,16.0,31,0.00,,,0.00,18.000000,,2013-04-05 02:52:00,
2013-04-04 21:22:00,41.0,15.0,-100.00,WSW,243,7.0,12.0,35,0.00,,,0.00,1.000000,,2013-04-05 03:22:00,
2013-04-04 21:32:00,41.0,15.0,-100.00,WSW,243,7.0,12.0,35,0.00,,,0.00,1.000000,,2013-04-05 03:32:00,
2013-04-04 21:43:00,41.0,15.0,-100.00,WSW,243,7.0,12.0,35,0.00,,,0.00,1.000000,,2013-04-05 03:43:00,
2013-04-04 21:53:00,41.0,15.0,-100.00,WSW,243,7.0,12.0,35,0.00,,,0.00,1.000000,,2013-04-05 03:53:00,
2013-04-04 22:22:00,41.0,15.0,-100.00,SW,221,9.0,13.0,35,0.00,,,0.00,1.000000,,2013-04-05 04:22:00,
2013-04-04 22:32:00,41.0,15.0,-100.00,SW,221,9.0,13.0,35,0.00,,,0.00,1.000000,,2013-04-05 04:32:00,
2013-04-04 22:42:00,41.0,15.0,-100.00,SW,221,9.0,13.0,35,0.00,,,0.00,1.000000,,2013-04-05 04:42:00,
2013-04-04 22:52:00,41.0,15.0,-100.00,SW,221,9.0,13.0,35,0.00,,,0.00,1.000000,,2013-04-05 04:52:00,
2013-04-04 23:22:00,40.0,16.0,-100.00,South,188,5.0,11.0,37,0.00,,,0.00,0.000000,,2013-04-05 05:22:00,
2013-04-04 23:32:00,40.0,16.0,-100.00,South,188,5.0,11.0,37,0.00,,,0.00,0.000000,,2013-04-05 05:32:00,
2013-04-04 23:42:00,40.0,16.0,-100.00,South,188,5.0,11.0,37,0.00,,,0.00,0.000000,,2013-04-05 05:42:00,
2013-04-04 23:52:00,40.0,16.0,-100.00,South,188,5.0,11.0,37,0.00,,,0.00,0.000000,,2013-04-05 05:52:00,